Regional Weather Roundup
Issued by NWS

Home | Current Version | Previous Version | Text Only | Print | Product List | Glossary On
Versions: 1 2 3 4 5 6 7 8 9 10 11 12 13 14 15 16 17 18 19 20 21 22 23 24 25 26 27
000
ASUS46 KPQR 190610
RWROR

OREGON REGIONAL WEATHER ROUNDUP
NATIONAL WEATHER SERVICE PORTLAND OR
1000 PM PST SUN FEB 18 2018

NOTE: "FAIR" INDICATES FEW OR NO CLOUDS BELOW 12,000 FEET WITH
NO SIGNIFICANT WEATHER AND/OR OBSTRUCTIONS TO VISIBILITY.

ORZ001>013-190700-
NORTHWEST OREGON


CITY           SKY/WX    TMP DP  RH WIND       PRES   REMARKS
ASTORIA        CLOUDY    34  20  56 NE15      29.91R WCI  24
6HR MIN TEMP:  33; 6HR MAX TEMP:  44; 6HR PCP: TRACE;

TILLAMOOK      FOG       32  32 100 CALM      29.90R VSB<1/4
NEWPORT        PTCLDY    32  32 100 NE6       29.88R
PORTLAND       LGT SNOW  33  32  96 NW9       29.87R VSB 1
6HR MIN TEMP:  33; 6HR MAX TEMP:  40; 6HR PCP:  0.10;

VANCOUVER WA   LGT SNOW  32  32 100 NW7       29.88R FOG
6HR MIN TEMP:  33; 6HR MAX TEMP:  40; 6HR PCP:  0.04;

SCAPPOOSE      CLOUDY    32  25  75 N10       29.87R WCI  24
6HR MIN TEMP:  32; 6HR MAX TEMP:  41; 6HR PCP: TRACE;

HILLSBORO      CLOUDY    32  28  85 NW7       29.86R
6HR MIN TEMP:  32; 6HR MAX TEMP:  40; 6HR PCP:  0.03;

AURORA         LGT SNOW  34  31  88 NW6       29.87R FOG
6HR MIN TEMP:  35; 6HR MAX TEMP:  38; 6HR PCP:  0.04;

MCMINNVILLE    CLEAR     33  29  85 N8        29.86R
6HR MIN TEMP:  33; 6HR MAX TEMP:  38; 6HR PCP: TRACE;

SALEM          MOCLDY    34  29  82 N7        29.85R
6HR MIN TEMP:  34; 6HR MAX TEMP:  41; 6HR PCP:  0.04;

CORVALLIS      CLOUDY    34  33  96 W3        29.86R
EUGENE         CLOUDY    33  33 100 S5        29.85R
6HR MIN TEMP:  33; 6HR MAX TEMP:  38; 6HR PCP:  0.01;

$$

ORZ021-028-190700-
SOUTHWEST OREGON


CITY           SKY/WX    TMP DP  RH WIND       PRES   REMARKS
NORTH BEND     LGT RAIN  34  34 100 S5        29.89R
6HR MIN TEMP:  35; 6HR MAX TEMP:  41; 6HR PCP:  0.25;

BROOKINGS      LGT RAIN  34  32  92 E3        29.92F
ROSEBURG       FLURRIES  35  31  85 CALM      29.85S
6HR MIN TEMP:  33; 6HR MAX TEMP:  36; 6HR PCP:  0.04;

SEXTON SUMMIT  SNOW      22  21  96 S8        29.71S VSB 1/4
6HR MIN TEMP:  21; 6HR MAX TEMP:  25; 6HR PCP:  0.07;

GRANTS PASS    MOCLDY    32  30  93 E5        29.87F
MEDFORD        PTCLDY    31  30  96 CALM      29.84S
6HR MIN TEMP:  30; 6HR MAX TEMP:  35; 6HR PCP:  0.03;

$$

ORZ014>016-041-190700-
COLUMBIA GORGE


CITY           SKY/WX    TMP DP  RH WIND       PRES   REMARKS
TROUTDALE      CLOUDY    35  31  85 VRB3      29.86R
6HR MIN TEMP:  34; 6HR MAX TEMP:  38; 6HR PCP:  0.18;

HOOD RIVER     LGT SNOW  30  27  86 CALM      29.91R
THE DALLES     CLOUDY    32  27  81 E7        29.92R
6HR MIN TEMP:  31; 6HR MAX TEMP:  40; 6HR PCP:  0.04;

$$

ORZ029>031-041-044-049-050-061>064-502-503-505>511-190700-
EASTERN OREGON


CITY           SKY/WX    TMP DP  RH WIND       PRES   REMARKS
MADRAS         NOT AVBL
REDMOND        CLOUDY    27  16  63 SE3       29.68R
6HR MIN TEMP:  26; 6HR MAX TEMP:  35;

BEND           CLOUDY    27  14  59 CALM      29.68R
PRINEVILLE     MIX PCPN  27  18  69 S6        29.68R
KLAMATH FALLS  LGT SNOW  22  21  96 SW3       29.69F VSB 1
6HR MIN TEMP:  19; 6HR MAX TEMP:  27; 6HR PCP:  0.04;

LAKEVIEW       MOCLDY    19  15  84 S3        29.65S
HERMISTON      CLOUDY    29  14  53 N22G32    29.88R WCI  15
6HR MIN TEMP:  29; 6HR MAX TEMP:  37; 6HR PCP: TRACE;

PENDLETON      FLURRIES  24  17  74 N18       29.80R WCI  10
6HR MIN TEMP:  24; 6HR MAX TEMP:  36; 6HR PCP:  0.03;

JOHN DAY       PTCLDY    22  21  93 CALM      29.63S
MEACHAM        LGT SNOW  20  17  88 CALM      29.64R FOG
6HR MIN TEMP:  20; 6HR MAX TEMP:  25; 6HR PCP:  0.10;

LA GRANDE      FLURRIES  22  21  96 SE3       29.69R
6HR MIN TEMP:  19; 6HR MAX TEMP:  28; 6HR PCP:  0.01;

BAKER CITY     LGT SNOW  26  22  84 W3        29.64S FOG
6HR MIN TEMP:  23; 6HR MAX TEMP:  32; 6HR PCP:  0.01;

BURNS          CLEAR     14  10  84 SW10      29.61F WCI   1
6HR MIN TEMP:  14; 6HR MAX TEMP:  30;

ROME             N/A     18  12  77 SE5       29.61S
6HR MIN TEMP:  18; 6HR MAX TEMP:  35;

ONTARIO        PTCLDY    25  19  78 SE6       29.67S
6HR MIN TEMP:  25; 6HR MAX TEMP:  40;

$$




USA.gov is the U.S. government's official web portal to all federal, state and local government web resources and services.